Terug naar catalogus

CZ-6A DEB

ActiefSSO
NORAD 56250·DEBRIS·🇨🇳 China

Gelanceerd Nov 11, 2022 vanaf Taiyuan Satellite Launch Center

Loading…

Volgende Passages (komende 24 uur)

TLE

VersSource: Space-Track

Epoch: Sep 14, 2026, 07:13 UTC

1 56250U 22151ABS 26257.30108627  .00001922  00000-0  52520-3 0  9999
2 56250  98.5549 287.1252 0089992  82.0102 279.1289 14.46067732183434

Volg CZ-6A DEB in realtime met AllMySat

Download on the App Store